User: anonymous   Login
Location: Whispering Pines Observatory
(39.4020°N, 104.7430°W)
Time: 23:09:23
(UTC-07:00)
Language:

MOS 1 Rocket - Orbit

View from above orbital plane
View from above orbital plane
View from above satellite
View from above satellite

Ground track
Ground track

The orbit data is extracted from the following two-line orbital elements,

1 17528U 87018B   17052.88979262  .00000113  00000-0  34711-4 0  9998
2 17528  97.4359  23.1112 0151036 298.9362  80.2744 14.50743949583161
Epoch (UTC): 21 February 2017 21:21:18
Eccentricity: 0.0151036
inclination: 97.4359°
perigee height: 616 km
apogee height: 830 km
right ascension of ascending node: 23.1112°
argument of perigee: 298.9362°
revolutions per day: 14.50743949
mean anomaly at epoch: 80.2744°
orbit number at epoch: 58316

The dashed part of the orbit path shows where the satellite is in the earth's shadow,  

DLR